Regional Weather Roundup
Issued by NWS

Home | Current Version | Previous Version | Graphics & Text | Print | Product List | Glossary On
Versions: 1 2 3 4 5 6 7 8 9 10 11 12 13 14 15 16 17 18 19 20 21 22 23 24 25 26 27 28 29 30 31 32 33 34 35 36 37 38 39 40 41 42 43 44 45 46 47 48 49 50
000
ASUS45 KTFX 200019
RWRMT
MONTANA HOURLY WEATHER ROUNDUP
NATIONAL WEATHER SERVICE GREAT FALLS MT
619 PM MDT SAT APR 19 2014

NOTE: "FAIR" INDICATES FEW OR NO CLOUDS BELOW 12000 FEET WITH NO
SIGNIFICANT WEATHER AND/OR OBSTRUCTIONS TO VISIBILITY.

* THESE STATIONS ARE NOT UNDER NWS QUALITY CONTROL. THEY DO NOT
   REPORT WEATHER SUCH AS PRECIPITATION OR FOG.

MTZ001>007-043-200100-
WEST OF THE DIVIDE
CITY           SKY/WX    TMP DP  RH WIND       PRES   REMARKS
KALISPELL      PTCLDY    61  21  21 S6        29.81F
MISSOULA       CLEAR     70  18  14 W15       29.80F
BUTTE          CLEAR     61  16  17 SW9       29.88F
MULLAN PASS    CLOUDY    46  19  34 SW9G18    29.90R
* ESSEX        N/A       56  16  21 NW4        N/A
* LINCOLN      N/A       63  15  15 W5G15      N/A
* LOOKOUT PASS N/A       54  22  29 SE4G9      N/A
* POLSON       N/A       61  22  22 S3G8       N/A
* SEELEY LAKE  N/A       63  15  15 S5G15      N/A
* THOMP F APT  PTCLDY    58  12  16 S10G27     N/A
$$

MTZ008-052>055-200100-
SOUTHWEST MONTANA
CITY           SKY/WX    TMP DP  RH WIND       PRES   REMARKS
BOZEMAN        MOCLDY    66  16  14 SW15      29.86F
DILLON         PTCLDY    64  12  13 SW12G23   29.86F
W YELLOWSTONE  N/A       53  20  27 SW5G15     N/A
* THREE FORKS  PTCLDY    70  21  16 SW9        N/A
* BOULDER HILL N/A       59  16  18 SW17G23    N/A
* MONIDA PASS  N/A       54  13  19 S17G26     N/A
* RAYNOLDS PAS N/A       49  30  48 SE17       N/A
* WHITEHALL    N/A       71  16  12 SW13G26    N/A
* WISE RIVER   N/A       61  16  17 SW12G20    N/A
$$

MTZ009>010-012-014-046-048-049-054-200100-
EAST SLOPES AND CENTRAL MONTANA
CITY           SKY/WX    TMP DP  RH WIND       PRES   REMARKS
CUT BANK       MOCLDY    59   9  14 W20       29.79F
GREAT FALLS    PTCLDY    63   9  12 SW16      29.80F
HELENA         PTCLDY    64  14  14 E5        29.81F
MALMSTROM AFB  PTCLDY    64   5   9 SW14G23   29.79F
* CONRAD       MOCLDY    61  14  16 SW5        N/A
* DEARBORN     N/A       67  13  12 S6         N/A
* EAST GLACIER N/A       52  15  23 NW17G26    N/A
* MONARCH      N/A       54   1  11 SW14G20    N/A
* PENDROY      N/A       60  12  15 E2G7       N/A
* ROGERS PASS  N/A       56  10  16 SE8G14     N/A
* SAINT MARY   N/A       53  17  24 SW7G16     N/A
* SWEET GRASS  N/A       56   9  15 W9G16      N/A
* WHITE SULPH  N/A       62  11  13 SW13G18    N/A
$$

MTZ011-013-016-021-035-040-045-047-050-051-200100-
NORTH CENTRAL MONTANA
CITY           SKY/WX    TMP DP  RH WIND       PRES   REMARKS
HAVRE          MOCLDY    63  12  13 W8        29.81F
LEWISTOWN      PTCLDY    61  10  13 W9G20     29.86F
* CHINOOK      PTCLDY    63  14  15 W5        29.83F
* FORT BENTON  PTCLDY    66  12  12 SW9G16    29.80F
* MALTA APT    CLEAR     64  19  18 S8        29.82F
* CHESTER      N/A       60   7  12 W5G10      N/A
* DENTON       N/A       65  13  13 W6         N/A
* GEYSER       N/A       62   9  12 W12G20     N/A
* JUDITH GAP   N/A       60  11  14 SW16       N/A
* LOMA         N/A       65  13  13 SW17G22    N/A
$$

MTZ017>020-022>027-061-062-200100-
NORTHEAST MONTANA
CITY           SKY/WX    TMP DP  RH WIND       PRES   REMARKS
GLASGOW        CLEAR     63  28  27 S8        29.86F
GLENDIVE       CLEAR     63  21  20 W10       29.93S
JORDAN         CLEAR     64  16  15 SW9       29.87F
SIDNEY         CLEAR     61  30  31 NW10      29.93S
WOLF POINT     CLEAR     63  27  26 SW14      29.90S
* BEAVER HILL  N/A       61  23  23 SW19       N/A
* CIRCLE       N/A       62  25  24 W7G15      N/A
* LINDSAY DVD  N/A       59  20  22 SW13       N/A
* NAVAJO       N/A       55  32  42 W9G17      N/A
* SACO         N/A       63  26  25 SW7        N/A
$$

MTZ028>042-056>058-200100-
SOUTHCENTRAL AND SOUTHEAST MONTANA
CITY           SKY/WX    TMP DP  RH WIND       PRES   REMARKS
BAKER          CLEAR     61  19  20 W13       29.95F
BILLINGS       FAIR      64  25  23 E9        29.88F
LIVINGSTON     PTCLDY    64  18  17 SW18G24   29.86F
MILES CITY     CLEAR     64  18  17 SW7       29.91F
* LAUREL APT   CLEAR     66  25  21 N/A        N/A
* ROUNDUP APT  CLEAR     64  16  15 SW7        N/A
* HYSHAM       N/A       64  17  16 SW3        N/A
* LAME DEER    N/A       59  17  19 SE4G15     N/A
* REED POINT   N/A       66  29  25 E9         N/A
* ROSCOE HILL  N/A       61   4  10 S10G16     N/A
$$

REGIONAL REPORTS...DAKOTAS
CITY           SKY/WX    TMP DP  RH WIND       PRES   REMARKS
WILLISTON      PTCLDY    57  34  42 SW10      29.92S
DICKINSON      CLEAR     61  28  29 W10       29.93R
CROSBY         CLEAR     52  32  47 NW7       29.93R
TIOGA          CLEAR     54  32  43 W12       29.95R
WATFORD CITY   CLEAR     57  32  39 W9        29.91S
BISMARCK       CLEAR     63  34  34 NW12      29.96R
GRAND FORKS    FAIR      55  39  55 W21       29.93R
FARGO          CLEAR     66  30  26 W10       29.91R
BUFFALO SD     CLEAR     64  19  18 VRB7      29.91S
RAPID CITY     MOCLDY    63  34  34 SE16      29.98S
$$

REGIONAL REPORTS...WYOMING/IDAHO/WASHINGTON
CITY           SKY/WX    TMP DP  RH WIND       PRES   REMARKS
GILLETTE       PTCLDY    63  28  27 S14       29.95R
SHERIDAN       PTCLDY    64  28  26 NE10      29.92S
CODY           CLEAR     64  18  17 W5G17     29.92S
YELLOWSTONE LA CLEAR     48  12  23 VRB5G20   30.08S
SALMON         CLEAR     70  19  14 W18G23    29.81S
MULLAN PASS    CLOUDY    46  19  34 SW9G18    29.90S
SAND POINT     PTCLDY    59  32  36 E9        29.81F
SPOKANE        MOCLDY    61  23  23 SW29      29.84R
$$

REGIONAL REPORTS...ALBERTA
CITY           SKY/WX    TMP DP  RH WIND       PRES   REMARKS
CALGARY        CLOUDY    52  23  32 SE12      29.69F
LETHBRIDGE     CLOUDY    55  19  24 SW10G17   29.76F
MEDICINE HAT   CLOUDY    59  23  25 SW5       29.77F
EDMONTON       PTCLDY    52  30  43 SE9       29.71F
WATERTON GATE  N/A       55  19  24 SW15G24    N/A
CARDSTON       N/A       57  18  22 SW8        N/A
MILK RIVER     N/A       55  10  16 W12G18     N/A
$$

REGIONAL REPORTS...SASKATCHEWAN
CITY           SKY/WX    TMP DP  RH WIND       PRES   REMARKS
SWIFT CURRENT  CLEAR     48  32  54 NW8       29.84S
REGINA         MOCLDY    39  34  82 W12       29.92R WCI  32
VAL MARIE      N/A       59  19  21 W14G20     N/A
ASSINIBOIA     N/A       48  34  59 N5         N/A
CORONACH       N/A       55  32  42 N3         N/A

$$




USA.gov is the U.S. government's official web portal to all federal, state and local government web resources and services.